Location: Killarney Provincial Park Observatory
(46.0124°N, 81.4000°W)
Time: 00:20:03
(UTC-05:00)

Iridium 22 - Visible Passes

Search period start: 28 February 2015 00:00
Search period end: 10 March 2015 01:00
Orbit: 776 x 779 km, 86.4° (Epoch: 27 February)

Date Brightness Start Highest point End Pass type
(mag) Time Alt. Az. Time Alt. Az. Time Alt. Az.
28 Feb 6.4 06:07:04 10° SSE 06:12:07 55° E 06:17:14 10° NNE visible
01 Mar 7.5 05:34:13 10° SE 05:38:45 31° E 05:43:21 10° NNE visible
01 Mar 8.7 19:23:29 10° NW 19:26:36 16° WNW 19:29:30 10° WSW visible
02 Mar 8.4 05:02:03 10° ESE 05:05:27 18° E 05:09:03 10° NE visible
02 Mar 8.0 18:48:59 10° NNW 18:53:21 27° W 18:57:37 10° SW visible
03 Mar 9.0 04:31:50 10° E 04:32:16 10° ENE 04:33:02 10° ENE visible
03 Mar 5.7 06:07:00 10° S 06:12:11 78° E 06:17:26 10° N visible
04 Mar 6.8 05:33:51 10° SSE 05:38:45 44° E 05:43:42 10° NNE visible
04 Mar 9.1 19:25:03 10° WNW 19:26:30 11° WNW 19:27:38 10° W visible
05 Mar 7.8 05:01:15 10° SE 05:05:24 25° E 05:09:41 10° NNE visible
05 Mar 8.5 18:49:35 10° NW 18:53:18 19° W 18:56:51 10° WSW visible
06 Mar 8.6 04:29:27 10° ESE 04:32:09 15° ENE 04:35:05 10° NE visible
06 Mar 5.5 06:07:05 10° S 06:12:17 75° W 06:17:33 10° N visible
07 Mar 6.1 05:33:40 10° SSE 05:38:47 62° E 05:43:58 10° N visible
08 Mar 7.2 06:00:43 10° SSE 06:05:23 35° E 06:10:08 10° NNE visible
08 Mar 8.7 19:50:30 10° NW 19:53:13 14° WNW 19:55:41 10° WSW visible
09 Mar 8.1 05:28:22 10° SE 05:32:04 21° E 05:35:56 10° NNE visible
09 Mar 5.7 07:07:21 10° SSW 07:12:27 53° W 07:17:34 10° N visible
